Regional Weather Roundup
Issued by NWS

Home | Current Version | Previous Version | Text Only | Print | Product List | Glossary On
Versions: 1 2 3 4 5 6 7 8 9 10 11 12 13 14 15 16 17 18 19 20 21 22 23 24 25 26 27 28 29 30 31 32 33 34 35 36 37 38 39 40 41 42 43 44 45 46 47 48 49 50
000
ASUS43 KLMK 200002
RWRKY
KENTUCKY REGIONAL WEATHER ROUNDUP
NATIONAL WEATHER SERVICE LOUISVILLE KY
800 PM EDT SUN OCT 19 2014

NOTE "FAIR" INDICATES FEW OR NO CLOUDS BELOW 12,000 FEET
WITH NO SIGNIFICANT WEATHER AND/OR OBSTRUCTIONS TO VISIBILITY.

KYZ001>023-026-027-061>063-070>075-200100-
WESTERN AND SOUTH CENTRAL KENTUCKY

CITY           SKY/WX    TMP DP  RH WIND       PRES   REMARKS
PADUCAH        MOCLDY    53  47  79 CALM      30.10F
HENDERSON      MOCLDY    52  41  66 CALM      30.12S
OWENSBORO      MOCLDY    56  45  66 CALM      30.12S
HOPKINSVILLE   MOCLDY    56  47  71 CALM      30.11F
BOWLING GREEN  PTCLDY    56  45  66 CALM      30.12S
GLASGOW        MOCLDY    51  44  77 CALM      30.13S
$$

KYZ024-025-028>034-038-045-046-053-200100-
NORTH CENTRAL KENTUCKY

CITY           SKY/WX    TMP DP  RH WIND       PRES   REMARKS
LOUISVILLE/SDF MOCLDY    54  42  64 SE13      30.11F
LOUISVILLE/LOU PTCLDY    54  42  64 CALM      30.12F
FORT KNOX      PTCLDY    48  44  84 CALM      30.11S
$$

KYZ035>037-039>044-047>052-055>060-089>105-200100-
NORTHEAST KENTUCKY

CITY           SKY/WX    TMP DP  RH WIND       PRES   REMARKS
LEXINGTON      PTCLDY    54  41  61 E5        30.13S
COVINGTON      PTCLDY    51  38  60 CALM      30.11S
FRANKFORT      MOCLDY    47  42  83 SW3       30.12S
$$

KYZ054-064>069-076>088-106>120-200100-
SOUTHEAST KENTUCKY

CITY           SKY/WX    TMP DP  RH WIND       PRES   REMARKS
JACKSON        CLEAR     53  37  54 CALM      30.13F
LONDON         CLEAR     50  43  77 CALM      30.13S
SOMERSET       PTCLDY    50  41  71 CALM      30.14S
MIDDLESBORO    CLEAR     50  45  83 W3        30.13S
MONTICELLO     PTCLDY    46  43  90 CALM      30.15S FOG
$$



USA.gov is the U.S. government's official web portal to all federal, state and local government web resources and services.